SL-8 DEB, 56999

Orbit data source: Space-Track

SL-8 DEB, 56999 is space debris in LEO originally from a launch on Wed, 01 Nov 1972 UTC launched from the Plesetsk Missile And Space Complex (PKMTR). Debris objects in space refer to the collection of defunct objects orbiting the Earth. Examples of debris include non-operational satellites, rocket bodies, and fragments generated from explosions, collisions, or faulty payload assembly.

Loading next visibility...
Identifier
56999, 1972-087K
Orbit
LEO
Country
Flag of CISCIS
Related business
Manufacturer
RVSN
Mission
Spacecraft
Bus & Motor
Unknown
Mass
Unknown
Launch date (UTC)
1972-11-01 (54 years ago)
Launch vehicle
Unknown
Launch site
Plesetsk Missile And Space Complex (PKMTR)
Object type
Payload
Rocket body
Debris
Shape & HBR
Unknown shape, 0.1 m
Radar Cross Section
Medium (>0.1 m² and <1 m²)

Expand to show TLE details & history
Last TLE update: 2 weeks ago

TLE from 2 weeks ago
0 SL-8 DEB
1 56999U 72087K   26156.92946121  .00000019  00000-0  26080-3 0  9995
2 56999  74.0418   3.4603 0080530  87.9275 273.0987 12.35600625565657
Epoch: 2026-06-05T22:18Z
TLE epoch observation values (Epoch: 2026-06-05T22:18:25.448Z)
Latitude
-0.00005°
Longitude
134.50193°
Altitude
1,524.741 km
Speed
7.105 km/s
True Right ascension
00h 13m 50s
True Declination
0° 00' 00"
Sunlit
Object was in daylight at epoch
Visualization orbit readout
Latitude
Unknown
Longitude
Unknown
Altitude
Unknown
Speed
Unknown
Apparent Right ascension
Unknown
Apparent Declination
Unknown
Sunlit
N/A
Visualization observer readout
Local Sidereal Time
21:33:38
Azimuth
Unknown
Elevation
Unknown
Doppler factor
Unknown
Orbital elements
Apogee altitude
1,586.788 km
Perigee altitude
1,459.529 km
Semi-major axis
7,901.296 km
Eccentricity
0.00805
Inclination
74.0418°
RAAN
3.4603°
Arg. of periapsis
87.9275°
True anomaly
272.17678°
Mean anomaly
273.0987°
Eccentric anomaly
272.63779°
Mean motion
3.09026 °/min
Orbital period
116.49 mins
BSTAR
0.0002608
Loading maneuver chart data...
Computing Atmospheric mass density...
Loading historical data...
Loading historical data...
Loading historical data...
Loading historical data...
Loading historical data...
Loading historical data...
Loading historical data...

Documentation

Showing up to 5 results
|